Weather History for KLSB - July, 2014

Change the Weather History Date:

Wednesday, July 23, 2014

  Actual Average Record
Temperature  
Mean Temperature 82 °F -  
Max Temperature 95 °F 94 °F 95 °F (2014)
Min Temperature 68 °F 62 °F 66 °F (2013)
Cooling Degree Days 16    
Growing Degree Days 32 (Base 50)    
Moisture  
Dew Point 54 °F    
Average Humidity 43    
Maximum Humidity 73    
Minimum Humidity 20    
Precipitation  
Precipitation 0.00 in - - ()
Sea Level Pressure  
Sea Level Pressure 30.21 in    
Wind  
Wind Speed 9 mph (SE)    
Max Wind Speed 24 mph    
Max Gust Speed 30 mph    
Visibility 10 miles    
Events Rain , Thunderstorm    
Averages and records for this station are not official NWS values.
T = Trace of Precipitation, MM = Missing Value Source: NWS Daily Summary

Daily Weather History Graph

Daily Weather History Graph

Search for Another Location

Airport or City:

Trip Planner

Search our weather history database for the weather conditions in past years. The results will help you decide how hot, cold, wet, or windy it might be!

Date:

Astronomy

Jul. 23, 2014 Rise Set
Actual Time 6:23 AM MDT 8:18 PM MDT
Civil Twilight 5:56 AM MDT 8:45 PM MDT
Nautical Twilight 5:23 AM MDT 9:18 PM MDT
Astronomical Twilight 4:47 AM MDT 9:53 PM MDT
Moon 3:43 AM MDT (7/23) 5:51 PM MDT (7/23)
Length of Visible Light 14h 49m
Length of Day
13h 55m
Waning Crescent, 9% of the Moon is Illuminated
Jul 23
Waning Crescent
Jul 26
New
Aug 3
First Quarter
Aug 10
Full
Aug 17
Last Quarter

Hourly Weather History & Observations

Time (MDT) Temp. Heat Index Dew Point Humidity Pressure Visibility Wind Dir Wind Speed Gust Speed Precip Events Conditions
12:35 AM 73.4 °F - 59.0 °F 61% 30.30 in 10.0 mi ESE 9.2 mph - N/A   Overcast
12:55 AM 73.4 °F - 59.0 °F 61% 30.30 in 10.0 mi SE 10.4 mph - N/A   Scattered Clouds
1:15 AM 73.4 °F - 59.0 °F 61% 30.29 in 10.0 mi SE 10.4 mph 16.1 mph N/A   Scattered Clouds
1:35 AM 73.4 °F - 57.2 °F 57% 30.28 in 10.0 mi SSE 11.5 mph - N/A   Scattered Clouds
1:55 AM 73.4 °F - 57.2 °F 57% 30.26 in 10.0 mi SSE 10.4 mph - N/A   Scattered Clouds
2:15 AM 71.6 °F - 59.0 °F 64% 30.24 in 10.0 mi SE 10.4 mph - N/A   Clear
2:35 AM 71.6 °F - 57.2 °F 60% 30.23 in 10.0 mi SE 6.9 mph - N/A   Clear
2:55 AM 71.6 °F - 59.0 °F 64% 30.23 in 10.0 mi East 9.2 mph - N/A   Clear
3:15 AM 71.6 °F - 59.0 °F 64% 30.23 in 10.0 mi East 8.1 mph - N/A   Clear
3:35 AM 69.8 °F - 59.0 °F 68% 30.24 in 10.0 mi East 8.1 mph - N/A   Clear
3:55 AM 69.8 °F - 59.0 °F 68% 30.23 in 10.0 mi ESE 10.4 mph - N/A   Clear
4:15 AM 69.8 °F - 59.0 °F 68% 30.23 in 10.0 mi ESE 4.6 mph - N/A   Clear
4:35 AM 69.8 °F - 59.0 °F 68% 30.22 in 10.0 mi ESE 5.8 mph - N/A   Clear
4:55 AM 69.8 °F - 59.0 °F 68% 30.21 in 10.0 mi SSE 4.6 mph - N/A   Clear
5:15 AM 69.8 °F - 59.0 °F 68% 30.21 in 10.0 mi SE 4.6 mph - N/A   Clear
5:35 AM 69.8 °F - 59.0 °F 68% 30.22 in 10.0 mi SE 5.8 mph - N/A   Clear
5:55 AM 69.8 °F - 59.0 °F 68% 30.21 in 10.0 mi South 6.9 mph - N/A   Clear
6:15 AM 68.0 °F - 59.0 °F 73% 30.23 in 10.0 mi SSW 6.9 mph - N/A   Clear
6:35 AM 68.0 °F - 59.0 °F 73% 30.23 in 10.0 mi South 6.9 mph - N/A   Clear
6:55 AM 69.8 °F - 59.0 °F 68% 30.23 in 10.0 mi South 4.6 mph - N/A   Clear
7:15 AM 69.8 °F - 59.0 °F 68% 30.24 in 10.0 mi South 5.8 mph - N/A   Clear
7:35 AM 69.8 °F - 59.0 °F 68% 30.25 in 10.0 mi Calm Calm - N/A   Clear
7:55 AM 71.6 °F - 59.0 °F 64% 30.24 in 10.0 mi South 3.5 mph - N/A   Clear
8:15 AM 73.4 °F - 59.0 °F 61% 30.25 in 10.0 mi SSE 5.8 mph - N/A   Clear
8:35 AM 75.2 °F - 57.2 °F 53% 30.25 in 10.0 mi South 4.6 mph - N/A   Clear
8:55 AM 77.0 °F - 55.4 °F 47% 30.25 in 10.0 mi Calm Calm - N/A   Clear
9:15 AM 78.8 °F - 55.4 °F 44% 30.25 in 10.0 mi SE 4.6 mph - N/A   Clear
9:35 AM 80.6 °F 80.5 °F 55.4 °F 42% 30.25 in 10.0 mi SSE 4.6 mph - N/A   Clear
9:55 AM 82.4 °F 81.7 °F 55.4 °F 39% 30.25 in 10.0 mi SE 5.8 mph - N/A   Clear
10:15 AM 84.2 °F 82.8 °F 53.6 °F 35% 30.25 in 10.0 mi SE 8.1 mph - N/A   Clear
10:35 AM 86.0 °F 84.5 °F 55.4 °F 35% 30.25 in 10.0 mi SE 13.8 mph - N/A   Clear
10:55 AM 87.8 °F 86.1 °F 55.4 °F 33% 30.25 in 10.0 mi SE 16.1 mph 23.0 mph N/A   Clear
11:15 AM 89.6 °F 87.7 °F 55.4 °F 31% 30.25 in 10.0 mi ESE 17.3 mph 24.2 mph N/A   Scattered Clouds
11:35 AM 89.6 °F 87.7 °F 55.4 °F 31% 30.25 in 10.0 mi East 15.0 mph 24.2 mph N/A   Scattered Clouds
11:55 AM 89.6 °F 87.7 °F 55.4 °F 31% 30.25 in 10.0 mi ESE 24.2 mph 28.8 mph N/A   Clear
12:15 PM 89.6 °F 87.7 °F 55.4 °F 31% 30.25 in 10.0 mi ESE 19.6 mph 26.5 mph N/A   Clear
12:35 PM 87.8 °F 86.1 °F 55.4 °F 33% 30.24 in 10.0 mi East 16.1 mph 25.3 mph N/A   Scattered Clouds
12:55 PM 89.6 °F 87.7 °F 55.4 °F 31% 30.24 in 10.0 mi ESE 20.7 mph - N/A   Scattered Clouds
1:15 PM 91.4 °F 89.9 °F 57.2 °F 31% 30.23 in 10.0 mi ESE 17.3 mph 23.0 mph N/A   Clear
1:35 PM 89.6 °F 87.7 °F 55.4 °F 31% 30.22 in 10.0 mi ESE 15.0 mph 23.0 mph N/A   Clear
1:55 PM 91.4 °F 89.1 °F 53.6 °F 28% 30.21 in 10.0 mi SE 15.0 mph 23.0 mph N/A   Clear
2:15 PM 95.0 °F 93.0 °F 55.4 °F 26% 30.19 in 10.0 mi SE 13.8 mph 21.9 mph N/A   Clear
2:35 PM 95.0 °F 93.0 °F 55.4 °F 26% 30.19 in 10.0 mi SE 15.0 mph 27.6 mph N/A   Clear
2:55 PM 91.4 °F 89.1 °F 53.6 °F 28% 30.19 in 7.0 mi SE 19.6 mph 29.9 mph N/A   Scattered Clouds
3:15 PM 91.4 °F 89.1 °F 53.6 °F 28% 30.18 in 10.0 mi SE 13.8 mph 24.2 mph N/A Thunderstorm Scattered Clouds
3:35 PM 89.6 °F 87.3 °F 53.6 °F 29% 30.18 in 10.0 mi ENE 18.4 mph 24.2 mph N/A Rain Light Rain
3:55 PM 84.2 °F 83.5 °F 57.2 °F 40% 30.18 in 10.0 mi ENE 15.0 mph 24.2 mph N/A   Overcast
4:15 PM 86.0 °F 84.2 °F 53.6 °F 33% 30.16 in 10.0 mi ENE 12.7 mph - N/A   Overcast
4:35 PM 87.8 °F 85.7 °F 53.6 °F 31% 30.16 in 10.0 mi ENE 9.2 mph - N/A   Overcast
4:55 PM 87.8 °F - 51.8 °F 29% 30.15 in 10.0 mi East 10.4 mph - N/A   Scattered Clouds
5:15 PM 89.6 °F - 50.0 °F 26% 30.14 in 10.0 mi ENE 8.1 mph - N/A   Clear
5:35 PM 89.6 °F - 46.4 °F 22% 30.14 in 10.0 mi East 12.7 mph - N/A   Clear
5:55 PM 91.4 °F - 44.6 °F 20% 30.14 in 10.0 mi ESE 8.1 mph 19.6 mph N/A   Scattered Clouds
6:15 PM 91.4 °F - 44.6 °F 20% 30.14 in 10.0 mi ESE 13.8 mph 21.9 mph N/A   Scattered Clouds
6:35 PM 91.4 °F - 44.6 °F 20% 30.14 in 10.0 mi ESE 13.8 mph - N/A   Scattered Clouds
6:55 PM 91.4 °F - 44.6 °F 20% 30.14 in 10.0 mi ESE 11.5 mph - N/A   Mostly Cloudy
7:35 PM 89.6 °F - 46.4 °F 22% 30.13 in 10.0 mi ESE 15.0 mph 19.6 mph N/A   Mostly Cloudy
8:15 PM 87.8 °F - 46.4 °F 24% 30.14 in 10.0 mi ESE 11.5 mph - N/A   Overcast
8:35 PM 86.0 °F - 44.6 °F 23% 30.14 in 10.0 mi ESE 8.1 mph - N/A   Scattered Clouds
8:55 PM 84.2 °F - 44.6 °F 25% 30.15 in 10.0 mi ESE 6.9 mph - N/A   Scattered Clouds
9:15 PM 80.6 °F - 44.6 °F 28% 30.15 in 10.0 mi SE 5.8 mph - N/A   Clear
9:35 PM 78.8 °F - 46.4 °F 32% 30.15 in 10.0 mi ESE 3.5 mph - N/A   Clear
9:55 PM 78.8 °F - 44.6 °F 30% 30.16 in 10.0 mi SE 4.6 mph - N/A   Clear
10:15 PM 77.0 °F - 44.6 °F 32% 30.17 in 10.0 mi South 5.8 mph - N/A   Clear
10:35 PM 77.0 °F - 44.6 °F 32% 30.18 in 10.0 mi SSE 4.6 mph - N/A   Clear
10:55 PM 77.0 °F - 44.6 °F 32% 30.18 in 10.0 mi SSE 5.8 mph - N/A   Clear
11:15 PM 75.2 °F - 42.8 °F 31% 30.19 in 10.0 mi SSE 6.9 mph - N/A   Clear
11:35 PM 73.4 °F - 42.8 °F 33% 30.19 in 10.0 mi SSE 4.6 mph - N/A   Clear